This is the latest recevied weather packets stored in our database for station/object IN3XSV. If no packets are shown the sender has not sent any weather packets the latest 10 day(s).
| Time | Temp. | Humidity | Pressure | Rain* | Wind** | Luminosity | Snow |
|---|---|---|---|---|---|---|---|
| 1778229514 | 16.11° C | 64% | 1009.4 hPa | 0 mm | - | - | - |
| 1778229287 | 16.67° C | 65% | 1009.4 hPa | 0 mm | - | - | - |
| 1778229214 | 16.67° C | 65% | 1009.4 hPa | 0 mm | - | - | - |
| 1778228914 | 16.67° C | 66% | 1009.6 hPa | 0 mm | - | - | - |
| 1778228614 | 16.67° C | 67% | 1009.5 hPa | 0 mm | - | - | - |
| 1778228314 | 16.11° C | 67% | 1009.5 hPa | 0 mm | - | - | - |
| 1778228014 | 16.67° C | 68% | 1009.6 hPa | 0 mm | - | - | - |
| 1778227714 | 16.11° C | 68% | 1009.6 hPa | 0 mm | - | - | - |
| 1778227414 | 16.11° C | 71% | 1009.7 hPa | 0 mm | - | - | - |
| 1778227114 | 15.56° C | 70% | 1009.7 hPa | 0 mm | - | - | - |
| 1778226814 | 15° C | 69% | 1009.5 hPa | 0 mm | - | - | - |
| 1778226514 | 15° C | 69% | 1009.6 hPa | 0 mm | - | - | - |
| 1778226214 | 15° C | 72% | 1009.5 hPa | 0 mm | - | - | - |
| 1778225914 | 15° C | 75% | 1009.6 hPa | 0 mm | - | - | - |
| 1778225614 | 14.44° C | 75% | 1009.6 hPa | 0 mm | - | - | - |
| 1778225314 | 14.44° C | 76% | 1009.6 hPa | 0 mm | - | - | - |
| 1778225014 | 13.89° C | 77% | 1009.6 hPa | 0 mm | - | - | - |
| 1778224714 | 13.89° C | 77% | 1009.6 hPa | 0 mm | - | - | - |
| 1778224502 | 13.33° C | 78% | 1009.6 hPa | 0 mm | - | - | - |
| 1778224414 | 13.33° C | 78% | 1009.6 hPa | 0 mm | - | - | - |
| 1778224114 | 13.33° C | 78% | 1009.7 hPa | 0 mm | - | - | - |
| 1778223871 | 12.78° C | 78% | 1009.8 hPa | 0 mm | - | - | - |
| 1778223814 | 12.78° C | 78% | 1009.8 hPa | 0 mm | - | - | - |
| 1778223617 | 12.78° C | 78% | 1009.7 hPa | 0 mm | - | - | - |
| 1778223514 | 12.78° C | 78% | 1009.7 hPa | 0 mm | - | - | - |
* Rain latest hour (hover to see other rain measurements)
** Current wind speed in m/s (hover to see current wind gust speed)